Home   Weather   Legnica   Past weeks

Flag for Poland Past Weather in Legnica, Poland — Yesterday and Last 2 Weeks

Now
70 °F

Passing clouds.


Feels Like: 77 °F
Forecast: 54 / 67 °F
Wind: 28 mph from Southwest

Location: Wroclaw Ii

Current Time: Aug 20, 2017 at 5:42:25 pm

Latest Report: Aug 20, 2017 at 4:00 pm


Visibility: 19 mi

Pressure: 30.11 "Hg

Humidity: 54%

Dew Point: 53 °F

Location of LegnicaLocation

Past Weather in Legnica — Graph

°F

Legnica Temperature Yesterday

Maximum temperature yesterday: 73 °F (at 2:00 am)
Minimum temperature yesterday: 63 °F (at 11:00 pm)
Average temperature yesterday: 68 °F

High & Low Weather Summary for the Past Weeks

 TemperatureHumidityPressure
High87 °F (Aug 18, 5:00 pm)97% (Aug 11, 2:00 am)30.26 "Hg (Aug 11, 2:00 am)
Low53 °F (Aug 8, 5:00 am)38% (Aug 7, 2:00 pm)29.76 "Hg (Aug 11, 6:00 pm)
Average68 °F73%30.06 "Hg
* Reported Aug 5 4:00 pm — Aug 20 4:00 pm, Legnica. Weather by CustomWeather, © 2017

Note: Actual official high and low records may vary slightly from our data, if they occured in-between our weather recording intervals... More about our weather records

Advertising

Legnica Weather History for the Previous 24 Hours

Scroll right to see more
 ConditionsComfort  
Time TempWeatherWind HumidityBarometerVisibility
4:00 pm
Sun, Aug 20
70 °FOvercast.2 mph54%30.11 "Hg25 mi
3:00 pm68 °FPassing clouds.26 mph59%30.12 "Hg6 mi
2:00 pm68 °FOvercast.3 mph59%30.13 "Hg25 mi
1:00 pm66 °FOvercast.6 mph69%30.13 "Hg25 mi
12:00 pm65 °FPassing clouds.29 mph69%30.14 "Hg43 mi
11:00 am64 °FOvercast.2 mph70%30.13 "Hg25 mi
10:00 am63 °FOvercast.3 mph74%30.13 "Hg25 mi
9:00 am61 °FOvercast.3 mph77%30.12 "Hg19 mi
8:00 am60 °FOvercast.2 mph90%30.11 "Hg12 mi
7:00 am58 °FOvercast.1 mph91%30.12 "Hg19 mi
6:00 am58 °FOvercast.1 mph87%30.11 "Hg19 mi
5:00 am59 °FOvercast.1 mph88%30.10 "Hg19 mi
4:00 am59 °FOvercast.1 mph89%30.10 "Hg19 mi
3:00 am59 °FOvercast.1 mph90%30.11 "Hg25 mi
2:00 am60 °FOvercast.1 mph85%30.10 "Hg31 mi
1:00 am63 °FOvercast.1 mph79%30.11 "Hg31 mi
12:00 am62 °FPassing clouds.1 mph80%30.11 "Hg31 mi
11:00 pm
Sat, Aug 19
63 °FPassing clouds.1 mph78%30.11 "Hg31 mi
10:00 pm65 °FOvercast.1 mph71%30.10 "Hg31 mi
9:00 pm67 °FOvercast.1 mph65%30.09 "Hg31 mi
8:00 pm69 °FOvercast.2 mph60%30.06 "Hg31 mi
7:00 pm70 °FOvercast.1 mph68%30.06 "Hg31 mi
6:00 pm71 °FOvercast.1 mph59%30.06 "Hg31 mi
5:00 pm72 °FOvercast.1 mph57%30.05 "Hg31 mi
Weather by CustomWeather, © 2017

See weather overviewHow to use our weather pages